Find Starlink 30183

NORAD ID: 57436 Int'l Des: 2023-105 Owner: SPXS Country: US Constellation: starlink decayed
LEOCIRCULAR

Historical Track — Jan 30, 2026

3D地球を読み込み中...

Starlink 30183について

説明を読み込み中...

高度履歴

Loading altitude history...

軌道要素

1 57436U 23105G 26030.33393141 .04164556 89178-5 14395-2 0 9997
2 57436 42.9639 19.0991 0014053 139.1257 221.0686 16.24094062140857
Epoch: Jan 30, 2026 • Age: 2770 hours

現在のステータス

Position data unavailable
打ち上げ日 Jul 24, 2023
運用期間 2.8 years
落下予定日 Jan 30, 2026
タイプ internet

技術仕様

分類 Payload
質量 730.00 kg
乾燥質量 700.00 kg
総質量 730.00 kg
長さ 0.30 m
直径 4.10 m
スパン 29.00 m
形状 Box + pan
製造者 SPXS
バスタイプ Starlink V2M
フェーズステータス Unknown Transfer Status
所有者/国 SPXS/US

Most Searched